Ardabil, Iran

8:59 AM +0330 on October 24, 2019 (GMT +0330)
Ardabil

Weather History for OITL - August, 2019

Change the Weather History Date:

Thursday, August 8, 2019

  Actual Average (WUND) Record (WUND)
Temperature  
Mean Temperature 60 °F -  
Max Temperature 68 °F - - (-1)
Min Temperature 51 °F - - (-1)
Degree Days  
Heating Degree Days 6    
Growing Degree Days 10 (Base 50)    
Moisture  
Dew Point 46 °F    
Average Humidity 57    
Maximum Humidity 94    
Minimum Humidity 34    
Precipitation  
Precipitation 0.00 in - - ()
Sea Level Pressure  
Sea Level Pressure 30.09 in    
Wind  
Wind Speed 15 mph ()    
Max Wind Speed 29 mph    
Max Gust Speed -    
Visibility 6.2 miles    
Events      
Averages and records for this station are not official NWS values.
T = Trace of Precipitation, MM = Missing Value Source: Averaged Metar Reports

Daily Weather History Graph

Daily Weather History Graph

Search for Another Location

Airport or City:

Astronomy

Aug. 08, 2019 Rise Set
Actual Time 6:24 AM +0430 8:19 PM +0430
Civil Twilight 5:55 AM +0430 8:48 PM +0430
Nautical Twilight 5:20 AM +0430 9:22 PM +0430
Astronomical Twilight 4:42 AM +0430 10:00 PM +0430
Moon 2:30 PM +0430 (8/8) 12:32 AM +0430 (8/8)
Length of Visible Light 14h 52m
Length of Day
13h 55m
First Quarter, 56% of the Moon is Illuminated
Aug 8
First Quarter
Aug 15
Full
Aug 23
Last Quarter
Aug 30
New
Sep 6
First Quarter

Hourly Weather History & Observations

Time (+0430) Temp. Dew Point Humidity Pressure Visibility Wind Dir Wind Speed Gust Speed Precip Events Conditions
12:20 AM 51.8 °F 30.2 °F 44% 30.12 in 6.2 mi East 11.5 mph - N/A   Mostly Cloudy
1:20 AM 57.2 °F 51.8 °F 82% 30.09 in 6.2 mi ENE 9.2 mph - N/A   Overcast
2:21 AM 57.2 °F 50.0 °F 77% 30.09 in 6.2 mi ENE 6.9 mph - N/A   Overcast
3:24 AM 57.2 °F 50.0 °F 77% 30.09 in 6.2 mi ENE 6.9 mph - N/A   Overcast
4:21 AM 55.4 °F 50.0 °F 82% 30.09 in 6.2 mi ENE 13.8 mph - N/A   Overcast
5:20 AM 55.4 °F 51.8 °F 88% 30.09 in 6.2 mi ENE 13.8 mph - N/A   Overcast
6:20 AM 57.2 °F 46.4 °F 67% 30.12 in 6.2 mi ENE 9.2 mph - N/A   Overcast
7:21 AM 57.2 °F 46.4 °F 67% 30.12 in 6.2 mi ENE 9.2 mph - N/A   Mostly Cloudy
7:30 AM 57.2 °F 46.4 °F 67% 30.12 in 6.2 mi ENE 9.2 mph - N/A   Mostly Cloudy
8:20 AM 57.2 °F 46.4 °F 67% 30.12 in 6.2 mi ENE 9.2 mph - N/A   Mostly Cloudy
8:30 AM 57.2 °F 46.4 °F 67% 30.12 in 6.2 mi ENE 9.2 mph - N/A   Mostly Cloudy
9:21 AM 60.8 °F 46.4 °F 59% 30.12 in 6.2 mi ENE 16.1 mph - N/A   Mostly Cloudy
10:21 AM 62.6 °F 41.0 °F 45% 30.12 in 6.2 mi ENE 19.6 mph - N/A   Mostly Cloudy
10:30 AM 62.6 °F 41.0 °F 45% 30.12 in 6.2 mi ENE 19.6 mph - N/A   Mostly Cloudy
11:00 AM 64.4 °F 39.2 °F 40% 30.12 in 6.2 mi ENE 21.9 mph - N/A   Mostly Cloudy
11:23 AM 64.4 °F 37.4 °F 37% 30.12 in 6.2 mi ENE 24.2 mph - N/A   Mostly Cloudy
12:22 PM 64.4 °F 35.6 °F 34% 30.12 in 6.2 mi ENE 28.8 mph - N/A   Scattered Clouds
12:30 PM 64.4 °F 35.6 °F 34% 30.12 in 6.2 mi ENE 28.8 mph - N/A   Scattered Clouds
1:00 PM 66.2 °F 41.0 °F 40% 30.12 in 6.2 mi ENE 26.5 mph - N/A   Scattered Clouds
1:20 PM 68.0 °F 41.0 °F 37% 30.09 in 6.2 mi ENE 26.5 mph - N/A   Scattered Clouds
1:30 PM 68.0 °F 41.0 °F 37% 30.09 in 6.2 mi ENE 26.5 mph - N/A   Scattered Clouds
2:00 PM 66.2 °F 44.6 °F 46% 30.09 in 6.2 mi ENE 26.5 mph - N/A   Scattered Clouds
2:20 PM 68.0 °F 44.6 °F 43% 30.09 in 6.2 mi ENE 24.2 mph - N/A   Scattered Clouds
2:30 PM 68.0 °F 44.6 °F 43% 30.09 in 6.2 mi ENE 24.2 mph - N/A   Scattered Clouds
3:00 PM 66.2 °F 44.6 °F 46% 30.09 in 6.2 mi ENE 26.5 mph - N/A   Scattered Clouds
3:21 PM 68.0 °F 44.6 °F 43% 30.06 in 6.2 mi NE 26.5 mph - N/A   Scattered Clouds
3:30 PM 68.0 °F 44.6 °F 43% 30.06 in 6.2 mi NE 26.5 mph - N/A   Scattered Clouds
4:00 PM 68.0 °F 44.6 °F 43% 30.06 in 6.2 mi ENE 24.2 mph - N/A   Scattered Clouds
4:20 PM 66.2 °F 44.6 °F 46% 30.06 in 6.2 mi ENE 21.9 mph - N/A   Scattered Clouds
4:30 PM 66.2 °F 44.6 °F 46% 30.06 in 6.2 mi ENE 21.9 mph - N/A   Scattered Clouds
5:00 PM 66.2 °F 46.4 °F 49% 30.06 in 6.2 mi ENE 24.2 mph - N/A   Scattered Clouds
5:21 PM 66.2 °F 46.4 °F 49% 30.06 in 6.2 mi NE 24.2 mph - N/A   Scattered Clouds
5:30 PM 66.2 °F 46.4 °F 49% 30.06 in 6.2 mi NE 24.2 mph - N/A   Scattered Clouds
6:00 PM 64.4 °F 48.2 °F 56% 30.06 in 6.2 mi NE 21.9 mph - N/A   Scattered Clouds
6:21 PM 64.4 °F 46.4 °F 52% 30.06 in 6.2 mi NE 21.9 mph - N/A   Scattered Clouds
6:30 PM 64.4 °F 46.4 °F 52% 30.06 in 6.2 mi NE 21.9 mph - N/A   Scattered Clouds
7:00 PM 60.8 °F 48.2 °F 63% 30.06 in 6.2 mi NE 19.6 mph - N/A   Mostly Cloudy
7:22 PM 60.8 °F 48.2 °F 63% 30.09 in 6.2 mi ENE 18.4 mph - N/A   Mostly Cloudy
7:30 PM 60.8 °F 48.2 °F 63% 30.09 in 6.2 mi ENE 18.4 mph - N/A   Mostly Cloudy
8:00 PM 59.0 °F 48.2 °F 67% 30.09 in 6.2 mi ENE 18.4 mph - N/A   Mostly Cloudy
8:22 PM 59.0 °F 48.2 °F 67% 30.09 in 6.2 mi ENE 13.8 mph - N/A   Mostly Cloudy
8:30 PM 59.0 °F 48.2 °F 67% 30.09 in 6.2 mi ENE 13.8 mph - N/A   Mostly Cloudy
9:00 PM 57.2 °F 48.2 °F 72% 30.09 in 6.2 mi ENE 11.5 mph - N/A   Mostly Cloudy
9:22 PM 57.2 °F 50.0 °F 77% 30.12 in 6.2 mi ENE 11.5 mph - N/A   Mostly Cloudy
9:30 PM 57.2 °F 50.0 °F 77% 30.12 in 6.2 mi ENE 11.5 mph - N/A   Mostly Cloudy
10:22 PM 55.4 °F 53.6 °F 94% 30.12 in 6.2 mi East 9.2 mph - N/A   Overcast
11:24 PM 59.0 °F 55.4 °F 88% 30.09 in 6.2 mi North 4.6 mph - N/A   Mostly Cloudy